Regional Weather Roundup
Issued by NWS

Home | Current Version | Previous Version | Text Only | Print | Product List | Glossary On
Versions: 1 2 3 4 5 6 7 8 9 10 11 12 13 14 15 16 17 18 19 20 21 22 23 24 25 26 27 28 29 30 31 32 33 34 35 36 37 38 39 40 41 42 43 44 45 46 47 48 49 50
961
ASUS43 KMPX 220110
RWRMN
WEATHER ROUNDUP FOR MINNESOTA
NATIONAL WEATHER SERVICE TWIN CITIES/CHANHASSEN MN
800 PM CDT THU MAY 21 2015


NOTE: "FAIR" INDICATES FEW OR NO CLOUDS BELOW 12,000 FEET WITH NO
SIGNIFICANT WEATHER AND/OR OBSTRUCTIONS TO VISIBILITY. N/A MEANS
CURRENT SKY AND/OR WEATHER CONDITIONS ARE NOT AVAILABLE.

MNZ060>063-068>070-220200-
   Twin Cities Metro

CITY           SKY/WX    TMP DP  RH WIND       PRES   REMARKS
TWIN CITIES    CLEAR     68  29  23 NW13G24   30.03R
ST PAUL        CLEAR     68  34  28 N7        30.03R
CRYSTAL        CLEAR     69  31  24 NW9       30.02R
BLAINE         CLEAR     68  34  28 NW12      30.03R
LAKEVILLE      CLEAR     66  30  26 N8        30.03R
EDEN PRAIRIE   CLEAR     68  32  26 N8        30.03R
SOUTH ST PAUL  CLEAR     68  32  26 N7        30.02R
LAKE ELMO      FAIR      64  34  32 N12G17    30.04R
$$
MNZ001>005-007-008-013>017-022>024-027-028-220200-
   Northwest Minnesota

CITY           SKY/WX    TMP DP  RH WIND       PRES   REMARKS
BEMIDJI        CLEAR     63  32  31 N7        30.07S
HALLOCK        CLEAR     64  27  24 N7        30.10S
ROSEAU         PTCLDY    64  37  36 NW6       30.09R
WARROAD        PTCLDY    57  43  58 CALM      30.09S
THIEF RVR FALL CLEAR     64  32  29 N10       30.10S
CROOKSTON      CLEAR     64  36  34 N10       30.11R
FOSSTON        CLEAR     64  36  34 N7        30.09S
DETROIT LAKES  CLEAR     64  32  29 N6        30.10R
MOORHEAD       CLEAR     64  36  34 NW13      30.10S
PARK RAPIDS    CLEAR     66  30  26 N13       30.07R
MAHNOMEN       FAIR      65  33  30 N7        30.09R
$$
MNZ006-009>011-018-025>026-220200-
   North Central Minnesota

CITY           SKY/WX    TMP DP  RH WIND       PRES   REMARKS
BAUDETTE       CLEAR     60  32  34 NW6       30.08S
FLAG ISLAND    PTCLDY    61  37  41 N7        30.07S
INTL FALLS     CLEAR     59  29  31 NW7       30.07R
WASKISH        CLEAR     61  34  36 N7        30.08S
BIG FORK       CLEAR     61  27  27 NW7       30.08R
LONGVILLE      CLEAR     63  28  27 NW5       30.07S
GRAND RAPIDS   CLEAR     63  28  27 NW13G21   30.06R
CRANE LAKE     CLEAR     57  23  26 N5        30.07S
ORR            PTCLDY    57  23  26 NW1       30.04R
COOK           PTCLDY    59  27  29 N7        30.06R
WALKER         FAIR      61  33  34 N3        30.07R
$$
MNZ012-019>021-037-220200-
   Northeast Minnesota

CITY           SKY/WX    TMP DP  RH WIND       PRES   REMARKS
DULUTH         CLEAR     63  26  24 N12       30.03R
ELY            CLEAR     57  23  26 NW7       30.04R
HIBBING        PTCLDY    61  26  26 N13       30.04S
EVELETH        CLEAR     59  27  29 N8        30.05S
DULUTH HARBOR  CLEAR     61  37  41 N12       30.02R
TWO HARBORS    CLEAR     64  34  32 N7        30.01R
SILVER BAY     CLEAR     63  27  25 CALM      30.00R
GRAND MARAIS     N/A     59  23  25 VRB5      30.01R
G MARAIS ARPRT CLEAR     52  19  28 NW8       30.03R
$$
MNZ029>031-032-039>041-046>048-054>057-064-220200-
   West Central Minnesota

CITY           SKY/WX    TMP DP  RH WIND       PRES   REMARKS
FERGUS FALLS   CLEAR     66  34  30 N12       30.09R
WHEATON        CLEAR     64  36  34 NW9       30.11S
MORRIS         CLEAR     68  32  26 N12       30.08R
ALEXANDRIA     CLEAR     65  32  29 N8        30.09S
ELBOW LAKE     FAIR      65  35  32 N12       30.08S
WADENA         CLEAR     63  36  36 NW9       30.07R
GLENWOOD       CLEAR     64  32  29 NW9       30.09R
APPLETON       CLEAR     68  30  24 N9        30.08R
BENSON         CLEAR     66  30  26 N8        30.08S
ORTONVILLE     CLEAR     68  27  21 N13       30.09R
MADISON        CLEAR     66  28  24 N8        30.09R
WILLMAR        FAIR      66  34  30 N12       30.08S
$$
MNZ033>034-036-042>043-049>051-058-059-220200-
   Central Minnesota

CITY           SKY/WX    TMP DP  RH WIND       PRES   REMARKS
ST CLOUD       CLEAR     66  36  32 N7        30.04R
SAUK CENTRE    FAIR      65  35  32 W9        30.07R
PAYNESVILLE    CLEAR     62  35  35 W7        30.07R
AITKIN         CLEAR     63  21  20 NW6       30.05R
PINE RIVER     CLEAR     63  36  36 N9        30.10R
BRAINERD       CLEAR     63  30  28 N10       30.07R
STAPLES        CLEAR     64  30  27 N8        30.06R
LONG PRAIRIE   FAIR      64  34  32 NW7       30.07R
LITTLE FALLS   CLEAR     64  28  25 CALM      30.06R
LITCHFIELD     CLEAR     68  34  28 NW6       30.06S
BUFFALO        CLEAR     67  32  27 CALM      30.05R
MAPLE LAKE     CLEAR     67  36  32 NW5       30.05S
$$
MNZ037-044-045-052-053-220200-
   East Central Minnesota

CITY           SKY/WX    TMP DP  RH WIND       PRES   REMARKS
PRINCETON      CLEAR     66  36  32 N8        30.05R
MORA           CLEAR     63  34  34 NW8       30.05S
CAMBRIDGE      CLEAR     68  43  40 NW6       30.02R
RUSH CITY      CLEAR     64  34  33 NW8       30.03R
MOOSE LAKE     CLEAR     64  32  29 N6        30.01R
HINCKLEY       FAIR      64  34  32 N3        30.03R
CLOQUET        CLEAR     63  21  20 NW12G17   30.03R
MCGREGOR       CLEAR     63  32  31 NW7       30.05R
$$
MNZ071>073-080-081-089-090-097-098-220200-
   Southwest Minnesota

CITY           SKY/WX    TMP DP  RH WIND       PRES   REMARKS
MONTEVIDEO     CLEAR     66  30  26 N12       30.09R
GRANITE FALLS  CLEAR     67  31  26 NW9       30.10R
CANBY          CLEAR     67  29  24 N7        30.10R
MARSHALL       CLEAR     70  27  19 N12       30.08S
REDWOOD FALLS  CLEAR     68  32  26 NW9       30.07R
OLIVIA         CLEAR     68  32  26 NW12      30.06S
PIPESTONE      CLEAR     70  34  26 VRB8      30.10R
WINDOM         CLEAR     66  25  20 NW10      30.09R
WORTHINGTON    CLEAR     68  30  24 N15       30.10R
JACKSON        CLEAR     70  12  11 N9        30.10R
TRACY          CLEAR     69  28  21 N10       30.09S
SLAYTON        CLEAR     67  28  23 N13G18    30.11R
$$
MNZ065>067-074>077-082>085-091>093-220200-
   South Central Minnesota

CITY           SKY/WX    TMP DP  RH WIND       PRES   REMARKS
MANKATO        CLEAR     66  34  30 N9        30.05R
NEW ULM        CLEAR     68  28  22 N6        30.06R
ST JAMES       CLEAR     72  25  17 NW9       30.07R
FAIRMONT       CLEAR     70  27  19 NW10      30.07R
GLENCOE        CLEAR     69  35  29 NW7       30.04R
FARIBAULT      CLEAR     68  34  28 NW7       30.04R
OWATONNA       CLEAR     66  32  28 N13       30.04R
WASECA         CLEAR     68  32  26 NW13      30.06R
ALBERT LEA     CLEAR     68  30  24 NW6       30.04
$$
MNZ078>079-086>088-094>096-220200-
   Southeast Minnesota

CITY           SKY/WX    TMP DP  RH WIND       PRES   REMARKS
ROCHESTER      CLEAR     65  39  38 NW13      30.03R
RED WING       CLEAR     70  25  18 N8        30.00R
STANTON        CLEAR     67  26  21 NW10      30.02R
DODGE CENTER   PTCLDY    66  30  26 NW12      30.04R
WINONA         CLEAR     70  37  30 NW10      29.99R
AUSTIN         CLEAR     64  37  36 N7        30.04R
PRESTON        CLEAR     65  35  32 NW8       30.02S
$$
ABBREVIATIONS USED IN REMARKS
   TC - TEMPERATURES IN CELSIUS
  WCI - WIND CHILL INDEX
   HX - HEAT INDEX
  VSB - VISIBILITY
$$



USA.gov is the U.S. government's official web portal to all federal, state and local government web resources and services.